Skip Navigation Links
NOAA logo - Click to go to the NOAA homepage
NOAA's National Weather Service
Alaska Aviation Weather Unit
  NWS logo - Click to go to the NWS homepage
Left Navbar Graphic     17 AKDT = 01 GMT

   
NOAA is celebrating 200 years of science, service, and stewardship. Visit the NOAA 200th celebration Web site to learn more.
USA.gov is the U.S. Government's official Web portal to all Federal, state and local government Web resources and services.
Facebook
NWS on Facebook

Important Change Regarding the AAWU Web Presence

 

Over the last several months, the AAWU has been working to navigate its webpages to a nationally supported server. Security, as well as other needs, have necessitated the change.  In the process, we have made an effort to enhance the functionality of our website, as well as some of our products. As of June 27, 2017, aawu.arh.noaa.gov will be discontinued. The new AAWU web address is weather.gov/aawu. It is now live and will run in-parallel with the old site until it is discontinued. Please send any feedback or questions regarding the new webpages to nws.ar.aawu.webauthors@noaa.gov.  Thank you for your patience during this time of transition.
AAWU Home :: Display TAF Add Bookmark
TAF PATK 252323Z 2600/2624 VRB05KT P6SM SCT050 BKN100
     FM260300 19007KT P6SM VCSH SCT050 BKN080
     FM260800 VRB05KT P6SM SCT080=

METAR PATK 251953Z VRB03KT 10SM BKN200 18/11 A2998 RMK AO2 SLP153 T01830106= METAR PATK 252053Z VRB03KT 10SM SCT050 BKN200 19/11 A2995 RMK AO2 SLP145 T01940106 58016= METAR PATK 252153Z VRB05KT 10SM SCT050 BKN200 20/10 A2993 RMK AO2 SLP137 T02000100= METAR PATK 252253Z 20005KT 10SM SCT050 BKN110 21/10 A2991 RMK AO2 SLP131 T02060100= METAR PATK 252353Z 22005KT 10SM SCT050 BKN150 21/11 A2990 RMK AO2 SLP127 T02110106 10211 20161 56018=
 Alaska TAF Map

NOAA's National Weather Service
Alaska Aviation Weather Unit
6930 Sand Lake Road
Anchorage, AK 99502-1845
Disclaimer
Credits
Glossary
Privacy Policy
About Us
Career Opportunities
Contact AAWU Internet Services Site last modified: April, 17th 2012